Terminal Aerodrome Forecast
Issued by NWS

Home | Current Version | Previous Version | Text Only | Print | Product List | Glossary On
Versions: 1 2 3 4 5 6 7 8 9 10 11 12 13 14 15 16 17 18 19 20 21 22 23 24 25 26 27 28 29 30 31 32 33 34 35 36 37 38 39 40 41 42 43 44 45 46 47 48 49 50
289
FTUS45 KBOU 022200 AAD
TAFBJC
TAF AMD
KBJC 022200Z 0222/0318 06005KT 4SM -SN BR SCT006 BKN020 OVC035
     FM022300 12005KT P6SM VCSH SCT020 BKN035 OVC050
     FM030200 34008KT P6SM SCT030 BKN090
     FM030600 29005KT P6SM FEW050 SCT120
     FM030900 VRB04KT P6SM SCT120
     FM031500 18005KT P6SM SCT200=

USA.gov is the U.S. government's official web portal to all federal, state and local government web resources and services.